www.pogodaiklimat.ru

АРХИВ ПОГОДЫ в Хьюстоне

Время (UTC), дата Ветер
(напр.,м/с)
 
Видим.   Явления Облачность Т
(С)
Тd
(С)
f
(%)
Тe
(С)
Тes
(С)
Комфортность

P
(гПа)

Po
(гПа)
Тmin
(С)
Tmax
(С)
R
(мм)
SD
(см)
04:53 17.12 СЗ  11 км    10/10 150 м  +11.0  +11.0  100  +7  +7    1017.4  1015.1         
05:53 17.12 С  16 км    10/8 210 м
[средняя] 
+9.0  +9.0  100  +5  +5    1017.1  1014.8  +9.4  +14.4     
06:15 17.12 С  14 км    10/5 180 м
[средняя] 
+9.4  +9.4  100  +6  +6      1014.5         
06:53 17.12 С  16 км    10/5 180 м
[средняя] 
+9.0  +9.0  100  +5  +5    1016.5  1014.5         
07:53 17.12 С  16 км    5/5 180 м
[средняя] 
+9.0  +9.0  100  +6  +6    1016.8  1014.5         
08:41 17.12 С  16 км    8/8 180 м  +8.9  +8.9  100  +6  +6      1014.8         
08:53 17.12 С  16 км    10/10 180 м  +8.9  +8.9  100  +5  +5    1017.0  1014.8         
09:53 17.12 С  16 км    10/10 150 м  +9.4  +9.4  100  +7  +7    1017.7  1015.5         
10:53 17.12 С  16 км    10/10 210 м  +9.4  +9.4  100  +7  +7    1018.0  1015.8         
11:53 17.12 С  16 км    10/10 180 м  +10.0  +9.0  93  +8  +8    1018.3  1016.1  +8.9       
12:53 17.12 З  5 км  дымка  10/10 180 м  +9.4  +9.4  100  +8  +8    1019.2  1017.2         
13:04 17.12 СЗ  800 м  туман  10/10 150 м  +9.4  +9.4  100  +7  +7      1016.8         
13:12 17.12 СЗ  400 м  туман  10/10 120 м  +9.4  +9.4  100  +7  +7      1016.8         
13:53 17.12 штиль  800 м  туман  10/10 60 м  +9.4  +9.4  100  +8  +8    1019.4  1017.2         
14:53 17.12 СЗ  2 км  дымка  10/10 60 м  +10.0  +10.0  100  +8  +8    1019.9  1017.5         
15:20 17.12 СЗ  1 км  дымка  10/10 60 м  +10.6  +10.6  100  +9  +9      1017.8         
15:53 17.12 В  3 км  дымка  10/10 60 м  +11.0  +11.0  100  +10  +10    1020.3  1018.2         
16:34 17.12 штиль  3 км  дымка  10/10 150 м  +12.2  +12.2  100  +11  +11      1017.5         
16:53 17.12 штиль  3 км  дымка  10/10 150 м  +13.0  +12.0  94  +12  +12    1020.0  1017.8         
17:30 17.12 штиль  8 км  дымка  10/5 240 м
[верхняя] 
+15.0  +12.8  87  +15  +18      1017.5         
17:53 17.12 В  8 км  мгла  10/2 300 м
[верхняя] 
+16.0  +13.0  82  +16  +21    1019.5  1017.2  +9.4       
18:53 17.12 штиль  16 км    10/0 7500 м
[верхняя] 
+17.2  +13.3  78  +17  +26    1018.4  1016.1         
19:53 17.12 штиль  13 км    10/0 6000 м
[средняя верхняя] 
+17.2  +13.3  78  +17  +24    1018.0  1015.8         
20:53 17.12 штиль  14 км    10/2 1500 м
[верхняя] 
+18.0  +13.0  73  +18  +23    1018.0  1015.8         
21:53 17.12 В  14 км    10/2 1350 м
[верхняя] 
+18.3  +12.8  70  +19  +22    1017.5  1015.5         
22:53 17.12 В  11 км    8/2 1500 м
[средняя верхняя] 
+17.0  +13.0  77  +18  +18    1017.9  1015.8         
23:53 17.12 ЮВ  16 км    8/8 1350 м
[верхняя] 
+16.0  +14.0  88  +16  +16    1018.0  1015.8  +15.0       
00:53 18.12 штиль  16 км    8/5 1350 м
[верхняя] 
+15.6  +13.3  86  +15  +15    1018.8  1016.5         
01:53 18.12 штиль  16 км    8/8 1050 м
[верхняя] 
+15.6  +13.9  90  +15  +15    1019.3  1017.2         
02:53 18.12 Ю  16 км    8/8 900 м
[верхняя] 
+16.0  +14.0  88  +16  +16    1019.7  1017.5         
03:15 18.12 штиль  16 км    8/8 840 м
[верхняя] 
+15.6  +14.4  93  +15  +15      1017.8         
03:53 18.12 штиль  16 км    8/8 840 м
[верхняя] 
+15.6  +14.4  93  +15  +15    1020.0  1017.8         
04:21 18.12 штиль  16 км    8/8 930 м
[верхняя] 
+16.1  +14.4  90  +16  +16      1017.8         
04:53 18.12 штиль  14 км    10/8 840 м
[верхняя] 
+16.1  +14.4  90  +16  +16    1020.1  1017.8         
05:53 18.12 штиль  14 км    10/10 690 м  +16.1  +15.0  93  +16  +16    1020.3  1018.2    +16.7     
06:53 18.12 СВ  13 км    10/10 660 м  +16.0  +14.0  88  +16  +16    1020.2  1018.2         
07:53 18.12 С  13 км    10/10 570 м  +15.6  +15.0  96  +16  +16    1020.2  1017.8         
08:53 18.12 С  13 км    10/10 570 м  +15.6  +15.0  96  +16  +16    1020.2  1017.8         
09:53 18.12 штиль  13 км    10/10 570 м  +15.6  +15.0  96  +15  +15    1020.1  1017.8         
10:53 18.12 С  13 км    8/8 600 м  +15.0  +13.9  93  +14  +14    1020.0  1017.8         
11:53 18.12 С  16 км    8/8 840 м  +14.0  +14.0  100  +14  +14    1020.7  1018.5  +14.4  +16.1     
12:30 18.12 С  16 км    10/8 450 м
[средняя] 
+14.4  +13.9  97  +14  +14      1019.2         
12:46 18.12 СВ  16 км    10/8 1050 м
[средняя] 
+14.4  +13.9  97  +14  +14      1018.8         
12:53 18.12 С  16 км    10/8 1200 м
[средняя] 
+14.4  +13.9  97  +14  +14    1021.2  1018.8         
13:53 18.12 СВ  16 км    10/10 450 м  +15.0  +14.0  94  +14  +14    1021.6  1019.5         
14:53 18.12 СВ  14 км    10/10 900 м  +16.0  +14.0  88  +15  +15    1022.1  1019.9         
15:16 18.12 СВ  14 км    10/10 570 м  +16.7  +15.0  90  +16  +16      1020.2         
15:53 18.12 СВ  16 км    10/10 540 м  +17.8  +15.0  84  +18  +18    1022.9  1020.5         

 

Местоположение метеостанции Houston Hobby Airport: широта 29.6375 долгота -95.2825 высота над уровнем моря 14 м.

В архиве по умолчанию представлена погода в Хьюстоне за последние 1-2 суток. Обновление информации о фактической погоде в базе происходит ежечасно! Архивные данные за месяц целиком и за предыдущие месяцы Вы можете получить, выбрав интересующий диапазон дат из раскрывающегося списка и нажав кнопку "Ввод!".

Внимание! Архив погоды МЕТАР в базе сайта в настоящее время начинается c 1 января 2013 г. Нет смысла пытаться выбрать более раннюю дату.

Внимание! Время в таблицах - всемирное. Для получения местного времени необходимо прибавить поправку, которая в Хьюстоне равна -6 ч.

Ветер - указаны скорость ветра в м/с и направление, откуда дует ветер: С - северный, СВ - северо-восточный, В - восточный, ЮВ - юго-восточный, Ю - южный, ЮЗ - юго-западный, З - западный, СЗ - северо-западный.
Видимость - горизонтальная дальность видимости в метрах или километрах. При видимости от 1 до 10 км при отсутствии осадков обычно наблюдается дымка, при ухудшении видимости до 1 км и менее - туман. В сухую погоду видимость может ухудшаться дымом, пылью или мглою.
Атмосферные явления - указаны явления, наблюдавшиеся в указанный момент времени.
Облачность - указаны через наклонную черту верхняя и нижняя облачность в баллах и высота нижней границы облаков в метрах. Внимание: облачность, как и прочие метеорологические величины в США измеряются автоматическими метеостанциями. Указанные значения в баллах носят условный характер и показывают процент времени, в течение которого, в среднем, лазерный луч высотомера отражался от облаков обратно.
T - Температура воздуха - температура, измеренная на высоте 2 м над землей.
Td - Температура точки росы - температура, при понижении до которой содержащийся в воздухе водяной пар достигнет насыщения.
f - Относительная влажность воздуха - влажноcть воздуха, измеренная на высоте 2 м над землей.
Te - Эффективная температура - температура, которую ощущает одетый по сезону человек в тени. Характеристика душности погоды. При расчете учитывается влияние влажности воздуха и скорости ветра на теплоощущения человека.
Tes - Эффективная температура на солнце - температура, которую ощущает человек, с поправкой на солнечный нагрев. Характеристика знойности погоды. Зависит от высоты солнца над горизонтом, облачности и скорости ветра. Ночью, в пасмурную погоду, а также при ветре 12 м/с и более поправка равна нулю.
P - Атмосферное давление - приведенное к уровню моря атмосферное давление.
Po - Атмосферное давление - измеренное на уровне метеостанции атмосферное давление.
Tmin - Минимальная температура - минимум температуры воздуха на высоте 2 м над землей.
Tmax - Максимальная температура - максимум температуры воздуха на высоте 2 м над землей.
R - Количество осадков - Количество выпавших осадков за 3 или 6 часов, мм.
SD - Снежный покров - Высота снежного покрова, см.